Terug naar catalogus

COSMOS 1348 DEB

LostHEO
NORAD 40328·DEBRIS·🇷🇺 Russia

Gelanceerd Apr 7, 1982 vanaf Plesetsk Cosmodrome

Loading…

Volgende Passages (komende 24 uur)

TLE

VerouderdSource: Space-Track

Epoch: Apr 18, 2019, 05:00 UTC

1 40328U 82029P   19108.20847354  .00000080  00000-0  00000+0 0  9997
2 40328  70.5469 211.1596 4559105  77.3701 328.4720  2.02636178 39967

Volg COSMOS 1348 DEB in realtime met AllMySat

Download on the App Store